Tracking 22836 objects as of 16-Apr-2021
HD Live streaming from Space Station
objects crossing your sky now

OPS 6679 (VELA 8)

Track OPS 6679 (VELA 8) now!
OPS 6679 (VELA 8) is classified as:


NORAD ID: 2766
Int'l Code: 1967-040B
Perigee: 56,010.4 km
Apogee: 167,764.9 km
Inclination: 26.3 °
Period: 6,745.4 minutes
Semi major axis: 118258 km
RCS: Unknown
Launch date: April 28, 1967
Source: United States (US)
Launch site: AIR FORCE EASTERN TEST RANGE (AFETR)
aabbcc
Your satellite tracking list
Your tracking list is empty




NASA's NSSDC Master Catalog

Two Line Element Set (TLE):
1  2766U 67040B   21107.13164955 -.00001069  00000-0  00000+0 0  9999
2  2766  26.3268  27.9372 4725007  39.6363 357.8471  0.21347825 42211
Source of the keplerian elements: AFSPC